Погода в Аколе

Индия     20°42′17″N   77°00′04″E
темп.,
°C
ветер,
м/с
пор.,
м/с
влажн.,
%
обл.,
%
осадки,
мм/ч
давл.,
гПа
погр.,
м
28 июня, вт
вт2823:30+31зюз476232 0.0 1003514
02:30+29з7107017 0.0 1002635
05:30+27з697683 0.1 1003521
08:30+29з6766100 1.4 1004739
11:30+33зсз665361 1.8 10031549
14:30+33з5650100 0.7 10011601
17:30+33з565099 0.8 10001501
20:30+32з3655100 0.0 1002698
29 июня, ср
ср2923:30+31з6860100 0.3 1002889
02:30+29з61068100 0.3 1001798
05:30+28з61072100 0.3 1001702
08:30+29зсз7962100 0.0 1003901
11:30+33зсз7748100 0.0 10021476
14:30+36зсз6640100 0.0 9992301
17:30+35сз5643100 0.2 9991805
20:30+33зсз5748100 0.0 10001435
30 июня, чт
чт3023:30+31з7958100 0.0 1001907
02:30+30зсз71063100 0.3 1000876
05:30+28з71067100 0.8 1001785
08:30+29з7961100 0.0 1003972
11:30+32з775085 0.0 10021444
14:30+34з6744100 0.2 10001935
17:30+33сз4547100 0.4 10001439
20:30+31ссв4358100 0.0 1001368
1 июля, пт
пт123:30+29вюв2269100 0.7 1002133
02:30+29з5865100 2.3 1001874
05:30+28з6971100 4.3 1002721
08:30+28з6871100 0.1 1003796
11:30+29з5761100 0.1 10031217
14:30+32з6749100 0.0 10011592
17:30+32з7952100 0.1 1001682
20:30+30з61059100 0.0 1003485
2 июля, сб
сб223:30+29з6961100 0.0 1003460
02:30+27з61065100 0.0 1002642
05:30+27з5869100 0.0 1003605
08:30+26зсз2475100 0.6 1004506
11:30+28юз3467100 1.8 1004833
14:30+27юв1270100 0.4 1002473
17:30+25зюз1286100 3.0 1003272
20:30+25з2482100 0.6 1004420